FW2316 Weather Reports


Display with metric or nautical units.
time (UTC)temp
F
wind
direction
speed
MPH
gust
MPH
rain 1hr
in
rain 24hr
in
rain mn
in
humidity
%
barometer
mb
20260901040531 65 217 0.0 1.0 0.00 0.00 0.00 73 1010.0
20260901040030 65 217 0.0 1.0 0.00 0.00 0.00 73 1009.8
20260901035529 65 217 0.0 0.0 0.00 0.00 0.00 72 1009.9
20260901035129 65 217 0.0 0.0 0.00 0.00 0.00 72 1009.8
20260901034536 65 217 0.0 0.0 0.00 0.00 0.00 72 1009.6
20260901034029 65 217 0.0 0.0 0.00 0.00 0.00 72 1009.7
20260901033528 66 217 0.0 0.0 0.00 0.00 0.00 71 1009.5
20260901033030 66 217 0.0 0.0 0.00 0.00 0.00 70 1009.4
20260901032528 66 217 0.0 0.0 0.00 0.00 0.00 69 1009.3
20260901032128 68 286 0.0 0.0 0.00 0.00 0.00 69 1009.3
20260901031535 68 286 0.0 0.0 0.00 0.00 0.00 69 1009.3
20260901031030 68 286 0.0 2.0 0.00 0.00 0.00 68 1009.3
20260901030527 69 286 0.0 2.0 0.00 0.00 0.00 68 1009.3
20260901030027 69 286 0.0 2.0 0.00 0.00 0.00 67 1009.3
20260901025531 69 286 1.0 4.0 0.00 0.00 0.00 67 1009.4
20260901025029 69 286 1.0 4.0 0.00 0.00 0.00 66 1009.4
20260901024526 70 286 2.0 4.0 0.00 0.00 0.00 65 1009.4
20260901024027 70 286 1.0 5.0 0.00 0.00 0.00 65 1009.4
20260901023527 71 286 2.0 5.0 0.00 0.00 0.00 64 1009.4
20260901023026 71 286 3.0 5.0 0.00 0.00 0.00 63 1009.5
20260901022528 71 286 2.0 4.0 0.00 0.00 0.00 63 1009.5
20260901022126 72 286 3.0 4.0 0.00 0.00 0.00 62 1009.5
20260901021525 72 286 3.0 4.0 0.00 0.00 0.00 62 1009.5
20260901021024 72 286 1.0 4.0 0.00 0.00 0.00 62 1009.4
20260901020524 72 286 1.0 5.0 0.00 0.00 0.00 62 1009.4
20260901020024 73 286 3.0 7.0 0.00 0.00 0.00 61 1009.4
20260901015528 73 292 2.0 7.0 0.00 0.00 0.00 61 1009.4
20260901015022 74 278 2.0 4.0 0.00 0.00 0.00 60 1009.5
20260901014522 74 278 0.0 7.0 0.00 0.00 0.00 60 1009.4
20260901014022 74 273 4.0 8.0 0.00 0.00 0.00 59 1009.4
20260901013524 75 267 2.0 8.0 0.00 0.00 0.00 59 1009.3
20260901013027 75 249 3.0 9.0 0.00 0.00 0.00 59 1009.3
20260901012521 76 262 3.0 8.0 0.00 0.00 0.00 57 1009.3
20260901012121 76 280 3.0 8.0 0.00 0.00 0.00 56 1009.3
20260901011520 76 281 3.0 8.0 0.00 0.00 0.00 56 1009.3
20260901011119 76 289 4.0 8.0 0.00 0.00 0.00 56 1009.3
20260901010521 76 288 3.0 7.0 0.00 0.00 0.00 56 1009.2
20260901010026 77 286 3.0 7.0 0.00 0.00 0.00 57 1009.2
20260901005523 76 281 1.0 7.0 0.00 0.00 0.00 58 1009.2
20260901005020 76 282 2.0 8.0 0.00 0.00 0.00 56 1009.3
20260901004518 77 297 4.0 8.0 0.00 0.00 0.00 55 1009.3
20260901004017 77 288 3.0 8.0 0.00 0.00 0.00 55 1009.3
20260901003518 78 280 2.0 8.0 0.00 0.00 0.00 55 1009.3
20260901003029 77 292 4.0 8.0 0.00 0.00 0.00 56 1009.3
20260901002517 77 250 4.0 8.0 0.00 0.00 0.00 56 1009.3
20260901002116 76 286 4.0 8.0 0.00 0.00 0.00 56 1009.3
20260901001015 75 288 5.0 8.0 0.00 0.00 0.00 58 1009.4
20260901000514 76 243 4.0 8.0 0.00 0.00 0.00 57 1009.5
20260901000015 77 292 3.0 8.0 0.00 0.00 0.00 56 1009.5
20260831235513 77 311 2.0 9.0 0.00 0.00 0.00 56 1009.6
20260831235013 77 310 5.0 10.0 0.00 0.00 0.00 54 1009.8
20260831234513 78 320 3.0 9.0 0.00 0.00 0.00 54 1009.6
20260831234013 78 306 4.0 10.0 0.00 0.00 0.00 54 1009.8
20260831233512 78 290 4.0 10.0 0.00 0.00 0.00 54 1009.7
20260831233010 79 311 4.0 8.0 0.00 0.00 0.00 53 1009.8
20260831232511 77 284 2.0 10.0 0.00 0.00 0.00 55 1009.8
20260831232109 78 288 5.0 9.0 0.00 0.00 0.00 53 1009.9
20260831231510 78 298 4.0 9.0 0.00 0.00 0.00 55 1009.9
20260831231008 77 285 4.0 9.0 0.00 0.00 0.00 55 1010.0
20260831230507 77 286 4.0 9.0 0.00 0.00 0.00 55 1010.0
20260831230007 78 286 2.0 8.0 0.00 0.00 0.00 55 1010.0
20260831225507 77 258 4.0 8.0 0.00 0.00 0.00 55 1010.0
20260831225006 78 331 3.0 6.0 0.00 0.00 0.00 54 1010.1
20260831224506 78 272 3.0 9.0 0.00 0.00 0.00 54 1010.1
20260831224006 77 290 5.0 9.0 0.00 0.00 0.00 55 1010.2
20260831223506 77 301 3.0 10.0 0.00 0.00 0.00 55 1010.3
20260831223006 77 290 6.0 12.0 0.00 0.00 0.00 56 1010.3
20260831222504 77 252 3.0 12.0 0.00 0.00 0.00 55 1010.2
20260831222004 78 323 0.0 2.0 0.00 0.00 0.00 51 1010.5
20260831221515 78 59 1.0 2.0 0.00 0.00 0.00 51 1010.5
20260831221005 78 206 0.0 3.0 0.00 0.00 0.00 52 1010.4
20260831220504 78 338 0.0 3.0 0.00 0.00 0.00 52 1010.6
20260831220006 78 19 1.0 3.0 0.00 0.00 0.00 52 1010.6
20260831215502 77 15 0.0 2.0 0.00 0.00 0.00 53 1010.6
20260831215101 77 360 0.0 4.0 0.00 0.00 0.00 54 1010.6
20260831214600 77 196 1.0 4.0 0.00 0.00 0.00 53 1010.7
20260831214501 77 206 2.0 4.0 0.00 0.00 0.00 54 1010.7
20260831214059 76 347 0.0 5.0 0.00 0.00 0.00 54 1010.8
20260831213558 76 340 1.0 5.0 0.00 0.00 0.00 54 1010.9
20260831213058 76 287 0.0 3.0 0.00 0.00 0.00 54 1010.9
20260831212601 77 74 1.0 4.0 0.00 0.00 0.00 53 1011.0
20260831212059 75 241 2.0 8.0 0.00 0.00 0.00 57 1011.0
20260831211056 76 294 0.0 5.0 0.00 0.00 0.00 56 1011.1
20260831210554 76 294 2.0 8.0 0.00 0.00 0.00 56 1011.3
20260831210055 76 299 3.0 8.0 0.00 0.00 0.00 56 1011.4
20260831205557 74 274 1.0 9.0 0.00 0.00 0.00 58 1011.4
20260831205054 76 300 3.0 9.0 0.00 0.00 0.00 55 1011.5
20260831204553 75 289 3.0 8.0 0.00 0.00 0.00 57 1011.5
20260831204053 74 273 2.0 7.0 0.00 0.00 0.00 59 1011.5
20260831203552 75 11 0.0 8.0 0.00 0.00 0.00 57 1011.5
20260831203056 75 343 2.0 9.0 0.00 0.00 0.00 57 1011.7
20260831202549 75 290 3.0 9.0 0.00 0.00 0.00 57 1011.9
20260831202048 75 311 4.0 8.0 0.00 0.00 0.00 57 1011.9
20260831201047 73 298 1.0 8.0 0.00 0.00 0.00 59 1012.0
20260831200547 74 297 2.0 8.0 0.00 0.00 0.00 57 1012.1
20260831200049 72 292 0.0 4.0 0.00 0.00 0.00 60 1012.2
20260831195544 72 292 1.0 7.0 0.00 0.00 0.00 60 1012.2
20260831195044 72 294 2.0 9.0 0.00 0.00 0.00 60 1012.3
20260831194605 72 290 5.0 9.0 0.00 0.00 0.00 60 1012.3
20260831194043 71 315 1.0 8.0 0.00 0.00 0.00 60 1012.3
20260831193541 72 312 5.0 8.0 0.00 0.00 0.00 60 1012.4
20260831193045 71 316 1.0 6.0 0.00 0.00 0.00 61 1012.5
20260831192541 71 316 3.0 8.0 0.00 0.00 0.00 61 1012.6
20260831192039 71 316 2.0 8.0 0.00 0.00 0.00 62 1012.7
20260831191042 72 305 4.0 8.0 0.00 0.00 0.00 61 1012.8
20260831190541 69 316 1.0 6.0 0.00 0.00 0.00 63 1012.8
20260831190104 69 311 0.0 8.0 0.00 0.00 0.00 63 1013.0
20260831185538 70 311 1.0 8.0 0.00 0.00 0.00 62 1013.1
20260831185036 70 313 2.0 6.0 0.00 0.00 0.00 62 1013.1
20260831184534 69 320 2.0 6.0 0.00 0.00 0.00 63 1013.3
20260831184035 69 318 4.0 6.0 0.00 0.00 0.00 62 1013.3
20260831183533 68 311 3.0 6.0 0.00 0.00 0.00 64 1013.3
20260831183032 69 298 3.0 8.0 0.00 0.00 0.00 63 1013.4
20260831182533 68 309 4.0 8.0 0.00 0.00 0.00 65 1013.5
20260831182030 68 294 2.0 8.0 0.00 0.00 0.00 66 1013.5
20260831181029 68 297 2.0 8.0 0.00 0.00 0.00 66 1013.5
20260831180528 68 325 3.0 6.0 0.00 0.00 0.00 65 1013.5
20260831180027 67 335 2.0 5.0 0.00 0.00 0.00 66 1013.5
20260831175526 66 334 2.0 5.0 0.00 0.00 0.00 67 1013.5
20260831175026 66 334 1.0 9.0 0.00 0.00 0.00 67 1013.6
20260831174526 67 336 3.0 9.0 0.00 0.00 0.00 65 1013.7
20260831174024 66 303 2.0 5.0 0.00 0.00 0.00 69 1013.7
20260831173524 66 303 1.0 6.0 0.00 0.00 0.00 69 1013.7
20260831173024 65 302 2.0 6.0 0.00 0.00 0.00 69 1013.7
20260831172521 64 300 2.0 5.0 0.00 0.00 0.00 71 1013.8
20260831172019 63 300 2.0 6.0 0.00 0.00 0.00 72 1013.7
20260831171018 63 313 2.0 5.0 0.00 0.00 0.00 75 1013.7
20260831170517 62 316 1.0 5.0 0.00 0.00 0.00 76 1013.8
20260831170016 61 319 2.0 5.0 0.00 0.00 0.00 76 1013.8
20260831165514 61 325 2.0 4.0 0.00 0.00 0.00 77 1013.9
20260831164518 60 325 1.0 4.0 0.00 0.00 0.00 78 1014.1
20260831164011 60 325 2.0 5.0 0.00 0.00 0.00 78 1014.2
20260831163510 60 325 2.0 5.0 0.00 0.00 0.00 78 1014.2
20260831163016 59 325 2.0 4.0 0.00 0.00 0.00 80 1014.3
20260831162508 59 325 0.0 4.0 0.00 0.00 0.00 78 1014.3
20260831162008 59 325 0.0 4.0 0.00 0.00 0.00 80 1014.3
20260831161004 58 325 1.0 4.0 0.00 0.00 0.00 80 1014.4
20260831160504 58 325 0.0 3.0 0.00 0.00 0.00 80 1014.4
20260831160003 57 325 1.0 2.0 0.00 0.00 0.00 81 1014.4
20260831155502 57 325 0.0 2.0 0.00 0.00 0.00 81 1014.5
20260831155002 57 325 0.0 2.0 0.00 0.00 0.00 82 1014.6
20260831154613 57 325 0.0 2.0 0.00 0.00 0.00 83 1014.6
20260831154058 56 325 0.0 2.0 0.00 0.00 0.00 83 1014.6
20260831153601 56 325 0.0 2.0 0.00 0.00 0.00 84 1014.6
20260831153111 56 325 0.0 3.0 0.00 0.00 0.00 84 1014.7
20260831152557 55 325 0.0 3.0 0.00 0.00 0.00 84 1014.8
20260831152056 55 325 1.0 4.0 0.00 0.00 0.00 85 1014.8
20260831151055 54 324 1.0 5.0 0.00 0.00 0.00 87 1014.8
20260831150552 54 324 2.0 5.0 0.00 0.00 0.00 87 1014.8
20260831150059 54 319 2.0 4.0 0.00 0.00 0.00 88 1014.9
20260831145550 53 306 1.0 4.0 0.00 0.00 0.00 89 1014.9
20260831145049 53 297 1.0 4.0 0.00 0.00 0.00 91 1014.8
20260831144548 52 296 0.0 0.0 0.00 0.00 0.00 92 1014.9
20260831144046 51 296 0.0 0.0 0.00 0.00 0.00 92 1014.8
20260831143545 51 297 0.0 0.0 0.00 0.00 0.00 92 1014.8
20260831143046 51 296 0.0 0.0 0.00 0.00 0.00 93 1014.8
20260831142543 50 296 0.0 1.0 0.00 0.00 0.00 94 1014.8
20260831142042 50 296 0.0 1.0 0.00 0.00 0.00 94 1014.8
20260831141043 49 296 0.0 2.0 0.00 0.00 0.00 94 1014.9
20260831140543 48 297 0.0 0.0 0.00 0.00 0.00 94 1014.9
20260831140042 48 296 0.0 0.0 0.00 0.00 0.00 94 1014.9
20260831135540 48 297 0.0 0.0 0.00 0.00 0.00 94 1014.9
20260831135040 48 296 0.0 0.0 0.00 0.00 0.00 94 1014.9
20260831134544 48 296 0.0 2.0 0.00 0.00 0.00 94 1014.9
20260831134037 48 297 0.0 3.0 0.00 0.00 0.00 94 1014.9
20260831133536 48 297 1.0 3.0 0.00 0.00 0.00 93 1014.9
20260831133036 48 296 0.0 4.0 0.00 0.00 0.00 93 1014.9
20260831132538 48 296 0.0 4.0 0.00 0.00 0.00 93 1014.9
20260831132035 48 297 0.0 0.0 0.00 0.00 0.00 93 1015.0
20260831131034 48 297 0.0 0.0 0.00 0.00 0.00 93 1015.0
20260831130534 48 297 0.0 0.0 0.00 0.00 0.00 92 1015.0
20260831130033 49 297 0.0 0.0 0.00 0.00 0.00 92 1015.1
20260831125533 49 297 0.0 0.0 0.00 0.00 0.00 92 1015.1
20260831125033 49 297 0.0 0.0 0.00 0.00 0.00 92 1015.1
20260831124532 49 297 0.0 0.0 0.00 0.00 0.00 92 1015.1
20260831124031 49 297 0.0 0.0 0.00 0.00 0.00 92 1015.1
20260831123531 49 297 0.0 0.0 0.00 0.00 0.00 92 1015.2
20260831123030 49 297 0.0 0.0 0.00 0.00 0.00 92 1015.1
20260831122530 49 297 0.0 0.0 0.00 0.00 0.00 92 1015.1
20260831122029 49 297 0.0 0.0 0.00 0.00 0.00 92 1015.1
20260831121030 49 297 0.0 0.0 0.00 0.00 0.00 91 1015.2
20260831120530 50 297 0.0 0.0 0.00 0.00 0.00 92 1015.2
20260831120038 50 297 0.0 0.0 0.00 0.00 0.00 91 1015.3
20260831115629 50 297 0.0 0.0 0.00 0.00 0.00 91 1015.3
20260831115027 50 297 0.0 0.0 0.00 0.00 0.00 92 1015.3
20260831114527 50 297 0.0 0.0 0.00 0.00 0.00 92 1015.3
20260831114027 50 297 0.0 0.0 0.00 0.00 0.00 92 1015.4
20260831113530 50 297 0.0 0.0 0.00 0.00 0.00 92 1015.4
20260831113025 50 297 0.0 0.0 0.00 0.00 0.00 91 1015.5
20260831112525 50 297 0.0 0.0 0.00 0.00 0.00 91 1015.5
20260831112024 50 297 0.0 0.0 0.00 0.00 0.00 91 1015.5
20260831111025 50 297 0.0 0.0 0.00 0.00 0.00 91 1015.7
20260831110520 50 297 0.0 0.0 0.00 0.00 0.00 91 1015.7
20260831110020 50 297 0.0 0.0 0.00 0.00 0.00 91 1015.6
20260831105520 50 297 0.0 0.0 0.00 0.00 0.00 91 1015.7
20260831105019 51 297 0.0 0.0 0.00 0.00 0.00 91 1015.8
20260831104524 51 297 0.0 0.0 0.00 0.00 0.00 91 1015.8
20260831104018 51 297 0.0 0.0 0.00 0.00 0.00 91 1015.8
20260831103517 51 297 0.0 1.0 0.00 0.00 0.00 91 1015.8
20260831103016 51 297 0.0 0.0 0.00 0.00 0.00 91 1015.8
20260831102519 51 297 0.0 1.0 0.00 0.00 0.00 91 1015.9
20260831102020 51 297 0.0 1.0 0.00 0.00 0.00 91 1015.8
20260831101017 51 297 0.0 1.0 0.00 0.00 0.00 91 1015.9
20260831100515 51 297 0.0 1.0 0.00 0.00 0.00 91 1016.0
20260831100014 51 297 0.0 0.0 0.00 0.00 0.00 90 1016.1
20260831095514 51 297 0.0 0.0 0.00 0.00 0.00 90 1016.1
20260831095013 51 297 0.0 0.0 0.00 0.00 0.00 90 1016.2
20260831094612 51 297 0.0 0.0 0.00 0.00 0.00 90 1016.3
20260831094012 51 297 0.0 1.0 0.00 0.00 0.00 90 1016.4
20260831093511 51 297 0.0 1.0 0.00 0.00 0.00 90 1016.5
20260831093015 51 297 0.0 1.0 0.00 0.00 0.00 89 1016.7
20260831092509 52 297 0.0 0.0 0.00 0.00 0.00 89 1016.7
20260831092007 52 297 0.0 0.0 0.00 0.00 0.00 89 1016.6
20260831091007 52 297 0.0 1.0 0.00 0.00 0.00 88 1016.8
20260831090507 52 297 0.0 1.0 0.00 0.00 0.00 88 1016.8
20260831090007 52 297 0.0 0.0 0.00 0.00 0.00 88 1016.8
20260831085507 52 297 0.0 0.0 0.00 0.00 0.00 88 1016.9
20260831085007 52 297 0.0 0.0 0.00 0.00 0.00 88 1016.9
20260831084519 52 297 0.0 0.0 0.00 0.00 0.00 88 1016.9
20260831084006 53 297 0.0 0.0 0.00 0.00 0.00 88 1016.8
20260831083506 53 297 0.0 0.0 0.00 0.00 0.00 88 1016.8
20260831083006 53 297 0.0 0.0 0.00 0.00 0.00 88 1016.9
20260831082505 53 297 0.0 0.0 0.00 0.00 0.00 88 1016.9
20260831082005 53 297 0.0 0.0 0.00 0.00 0.00 88 1016.9
20260831081004 53 297 0.0 0.0 0.00 0.00 0.00 87 1017.1
20260831080504 53 297 0.0 0.0 0.00 0.00 0.00 87 1017.1
20260831080012 53 297 0.0 0.0 0.00 0.00 0.00 87 1017.2
20260831075504 54 297 0.0 0.0 0.00 0.00 0.00 86 1017.2
20260831075004 54 297 0.0 0.0 0.00 0.00 0.00 86 1017.1
20260831074511 54 297 0.0 0.0 0.00 0.00 0.00 86 1017.1
20260831074004 54 297 0.0 0.0 0.00 0.00 0.00 85 1017.1
20260831073503 54 297 0.0 0.0 0.00 0.00 0.00 85 1017.2
20260831073003 55 297 0.0 0.0 0.00 0.00 0.00 85 1017.2
20260831072505 55 297 0.0 0.0 0.00 0.00 0.00 85 1017.3
20260831072002 55 297 0.0 0.0 0.00 0.00 0.00 84 1017.3
20260831071003 55 297 0.0 0.0 0.00 0.00 0.00 83 1017.4
20260831070501 56 297 0.0 1.0 0.00 0.00 0.00 83 1017.4
20260831070001 56 297 0.0 1.0 0.00 0.00 0.00 84 1017.6
20260831065500 55 297 0.0 0.0 0.00 0.00 0.00 84 1017.6
20260831065101 56 297 0.0 0.0 0.00 0.00 0.00 83 1017.7
20260831064602 56 297 0.0 0.0 0.00 0.00 0.00 82 1017.7
20260831064059 56 297 0.0 0.0 0.00 0.00 0.00 82 1017.7
20260831063559 56 297 0.0 1.0 0.00 0.00 0.00 82 1017.8
20260831063111 57 297 0.0 3.0 0.00 0.00 0.00 81 1017.8
20260831062559 57 297 0.0 1.0 0.00 0.00 0.00 81 1017.9
20260831062058 57 297 0.0 2.0 0.00 0.00 0.00 82 1018.0
20260831061057 55 230 0.0 0.0 0.00 0.00 0.00 83 1018.1
20260831060557 55 230 0.0 0.0 0.00 0.00 0.00 82 1018.1
20260831060056 55 230 0.0 0.0 0.00 0.00 0.00 82 1018.1
20260831055558 55 230 0.0 0.0 0.00 0.00 0.00 82 1018.2
20260831055055 56 230 0.0 0.0 0.00 0.00 0.00 82 1018.3
20260831054555 56 230 0.0 0.0 0.00 0.00 0.00 81 1018.3
20260831054054 56 230 0.0 0.0 0.00 0.00 0.00 80 1018.4
20260831053557 56 230 0.0 0.0 0.00 0.00 0.00 79 1018.5
20260831053100 57 230 0.0 0.0 0.00 0.00 0.00 79 1018.5
20260831052554 57 230 0.0 0.0 0.00 0.00 0.00 78 1018.5
20260831052056 57 230 0.0 0.0 0.00 0.00 0.00 78 1018.5
20260831051054 58 297 0.0 1.0 0.00 0.00 0.00 79 1018.5
20260831050555 58 297 0.0 0.0 0.00 0.00 0.00 78 1018.5
20260831050053 58 297 0.0 0.0 0.00 0.00 0.00 78 1018.5
20260831045553 58 297 0.0 0.0 0.00 0.00 0.00 77 1018.6
20260831045053 59 297 0.0 0.0 0.00 0.00 0.00 76 1018.6
20260831044553 59 297 0.0 0.0 0.00 0.00 0.00 76 1018.6
20260831044053 59 297 0.0 0.0 0.00 0.00 0.00 75 1018.7
20260831043552 59 297 0.0 0.0 0.00 0.00 0.00 74 1018.6
20260831043053 60 297 0.0 0.0 0.00 0.00 0.00 73 1018.6
20260831042555 60 297 0.0 1.0 0.00 0.00 0.00 72 1018.6
20260831042052 61 297 0.0 2.0 0.00 0.00 0.00 70 1018.7
20260831041052 62 267 0.0 2.0 0.00 0.00 0.00 66 1018.7